Simultaneous Nadir Overpasses (SNOs) Predictions

Prediction of SNOs between METOP-A and TERRA Satellite Orbit:

Table of predicted SNOs for the next 14.0 days since TLE Epoch: 2/28/2015
Index Date (METOP-A) Time (METOP-A) Lat,Lon (METOP-A) SZA (METOP-A ) Date (TERRA) Time (TERRA) Lat,Lon (TERRA) SZA (TERRA ) Distance(km) Time Diff (sec)
1 03/01/2015 21:42:39 81.32, -98.30 91.17 03/01/2015 21:43:08 81.32, -98.17 91.19 2.36 29
2 03/01/2015 22:33:18 -81.33, 69.70 88.77 03/01/2015 22:32:34 -81.33, 69.76 88.79 1.18 44
3 03/04/2015 17:17:01 81.32, -31.58 90.15 03/04/2015 17:17:18 81.31, -31.73 90.13 2.83 17
4 03/04/2015 18:07:41 -81.33, 136.07 89.83 03/04/2015 18:06:44 -81.33, 136.22 89.84 2.52 57
5 03/07/2015 12:51:23 81.33, 35.09 89.11 03/07/2015 12:51:26 81.33, 35.09 89.12 0.64 3
6 03/
